Time,TemperatureF,DewpointF,PressureIn,WindDirection,WindDirectionDegrees,WindSpeedMPH,WindSpeedGustMPH,Humidity,HourlyPrecipIn,Conditions,Clouds,dailyrainin,SoftwareType,DateUTC
2013-06-25 00:00:00,60.2,55.7,29.67,SE,126,0.0,7.0,85,0.00,,---,0.12,VWS V14.01,2013-06-25 07:00:00,
2013-06-25 00:05:00,60.1,55.9,29.67,ESE,106,3.0,5.0,86,0.00,,---,0.00,VWS V14.01,2013-06-25 07:05:00,
2013-06-25 00:10:00,60.0,56.1,29.67,ESE,121,0.0,9.0,87,0.00,,---,0.00,VWS V14.01,2013-06-25 07:10:00,
2013-06-25 00:15:00,59.9,56.0,29.67,ESE,114,3.0,9.0,87,0.00,,---,0.00,VWS V14.01,2013-06-25 07:15:00,
2013-06-25 00:20:00,59.8,55.9,29.67,ESE,119,1.0,9.0,87,0.00,,---,0.00,VWS V14.01,2013-06-25 07:20:00,
2013-06-25 00:25:00,59.8,55.9,29.67,ESE,113,1.0,9.0,87,0.00,,---,0.00,VWS V14.01,2013-06-25 07:25:00,
2013-06-25 00:30:00,59.7,55.8,29.67,ESE,118,4.0,9.0,87,0.00,,---,0.00,VWS V14.01,2013-06-25 07:30:00,
2013-06-25 00:35:00,59.6,55.4,29.67,ESE,114,2.0,4.0,86,0.00,,---,0.00,VWS V14.01,2013-06-25 07:35:00,
2013-06-25 00:40:00,59.6,55.4,29.67,SSE,159,0.0,4.0,86,0.00,,---,0.00,VWS V14.01,2013-06-25 07:40:00,
2013-06-25 00:45:00,59.6,55.4,29.67,South,169,0.0,4.0,86,0.00,,---,0.00,VWS V14.01,2013-06-25 07:45:00,
2013-06-25 00:50:00,59.6,55.4,29.67,SSE,162,0.0,4.0,86,0.00,,---,0.00,VWS V14.01,2013-06-25 07:50:00,
2013-06-25 00:55:00,59.5,55.3,29.67,South,177,0.0,4.0,86,0.00,,---,0.00,VWS V14.01,2013-06-25 07:55:00,
2013-06-25 01:01:00,59.5,55.3,29.67,South,176,1.0,2.0,86,0.00,,---,0.00,VWS V14.01,2013-06-25 08:01:00,
2013-06-25 01:06:00,59.5,55.3,29.67,SSE,152,0.0,3.0,86,0.00,,---,0.00,VWS V14.01,2013-06-25 08:06:00,
2013-06-25 01:11:00,59.6,55.4,29.67,SSE,152,0.0,3.0,86,0.00,,---,0.00,VWS V14.01,2013-06-25 08:11:00,
2013-06-25 01:16:00,59.6,55.4,29.67,SSE,152,0.0,3.0,86,0.00,,---,0.00,VWS V14.01,2013-06-25 08:16:00,
2013-06-25 01:21:00,59.6,55.4,29.67,SSE,152,0.0,3.0,86,0.00,,---,0.00,VWS V14.01,2013-06-25 08:21:00,
2013-06-25 01:26:00,59.6,55.4,29.67,SSE,152,0.0,3.0,86,0.00,,---,0.00,VWS V14.01,2013-06-25 08:26:00,
2013-06-25 01:31:00,59.6,55.4,29.67,SSE,152,0.0,0.0,86,0.00,,---,0.00,VWS V14.01,2013-06-25 08:31:00,
2013-06-25 01:36:00,59.6,55.4,29.66,SSE,152,0.0,0.0,86,0.00,,---,0.00,VWS V14.01,2013-06-25 08:36:00,
2013-06-25 01:41:00,59.5,55.3,29.66,SSE,152,0.0,0.0,86,0.00,,---,0.00,VWS V14.01,2013-06-25 08:41:00,
2013-06-25 01:46:00,59.6,55.4,29.66,SSE,152,0.0,0.0,86,0.00,,---,0.00,VWS V14.01,2013-06-25 08:46:00,
2013-06-25 01:51:00,59.6,55.4,29.66,SSE,152,0.0,0.0,86,0.00,,---,0.00,VWS V14.01,2013-06-25 08:51:00,
2013-06-25 01:56:00,59.6,55.1,29.66,ESE,123,0.0,3.0,85,0.00,,---,0.00,VWS V14.01,2013-06-25 08:56:00,
2013-06-25 02:01:00,59.6,55.1,29.66,ESE,114,0.0,2.0,85,0.00,,---,0.00,VWS V14.01,2013-06-25 09:01:00,
2013-06-25 02:06:00,59.6,55.1,29.66,ESE,109,2.0,4.0,85,0.00,,---,0.00,VWS V14.01,2013-06-25 09:06:00,
2013-06-25 02:11:00,59.6,55.1,29.66,ESE,123,3.0,4.0,85,0.00,,---,0.00,VWS V14.01,2013-06-25 09:11:00,
2013-06-25 02:17:00,59.6,55.1,29.66,ESE,119,0.0,4.0,85,0.00,,---,0.00,VWS V14.01,2013-06-25 09:17:00,
2013-06-25 02:22:00,59.6,55.1,29.66,ESE,120,1.0,4.0,85,0.00,,---,0.00,VWS V14.01,2013-06-25 09:22:00,
2013-06-25 02:27:00,59.6,55.4,29.66,ESE,117,0.0,4.0,86,0.00,,---,0.00,VWS V14.01,2013-06-25 09:27:00,
2013-06-25 02:32:00,59.6,55.4,29.66,SE,128,1.0,2.0,86,0.00,,---,0.00,VWS V14.01,2013-06-25 09:32:00,
2013-06-25 02:37:00,59.6,55.4,29.66,ESE,110,1.0,3.0,86,0.00,,---,0.00,VWS V14.01,2013-06-25 09:37:00,
2013-06-25 02:42:00,59.5,55.3,29.66,ESE,111,1.0,3.0,86,0.00,,---,0.00,VWS V14.01,2013-06-25 09:42:00,
2013-06-25 02:47:00,59.5,55.6,29.66,ESE,113,1.0,3.0,87,0.00,,---,0.00,VWS V14.01,2013-06-25 09:47:00,
2013-06-25 02:52:00,59.4,55.8,29.66,ESE,113,0.0,3.0,88,0.00,,---,0.00,VWS V14.01,2013-06-25 09:52:00,
2013-06-25 02:57:00,59.3,55.8,29.66,ESE,113,0.0,3.0,88,0.00,,---,0.00,VWS V14.01,2013-06-25 09:57:00,
2013-06-25 03:02:00,59.0,55.8,29.66,ESE,121,0.0,2.0,89,0.00,,---,0.00,VWS V14.01,2013-06-25 10:02:00,
2013-06-25 03:07:00,59.0,56.1,29.66,ESE,121,1.0,2.0,90,0.01,,---,0.01,VWS V14.01,2013-06-25 10:07:00,
2013-06-25 03:12:00,59.0,56.1,29.66,ESE,121,0.0,2.0,90,0.01,,---,0.01,VWS V14.01,2013-06-25 10:12:00,
2013-06-25 03:17:00,59.0,56.4,29.66,ESE,121,0.0,2.0,91,0.01,,---,0.01,VWS V14.01,2013-06-25 10:17:00,
2013-06-25 03:22:00,58.9,56.3,29.66,ESE,121,0.0,2.0,91,0.01,,---,0.01,VWS V14.01,2013-06-25 10:22:00,
2013-06-25 03:27:00,58.8,56.2,29.66,ESE,121,0.0,2.0,91,0.01,,---,0.01,VWS V14.01,2013-06-25 10:27:00,
2013-06-25 03:33:00,58.7,56.1,29.67,ESE,121,0.0,2.0,91,0.01,,---,0.01,VWS V14.01,2013-06-25 10:33:00,
2013-06-25 03:38:00,58.6,56.0,29.67,ESE,121,0.0,2.0,91,0.01,,---,0.01,VWS V14.01,2013-06-25 10:38:00,
2013-06-25 03:43:00,58.6,56.3,29.67,ESE,121,0.0,2.0,92,0.01,,---,0.01,VWS V14.01,2013-06-25 10:43:00,
2013-06-25 03:48:00,58.4,56.1,29.67,SE,140,0.0,2.0,92,0.02,,---,0.02,VWS V14.01,2013-06-25 10:48:00,
2013-06-25 03:53:00,58.3,56.0,29.67,SSE,148,1.0,3.0,92,0.02,,---,0.02,VWS V14.01,2013-06-25 10:53:00,
2013-06-25 03:58:00,58.0,55.7,29.67,ESE,117,0.0,3.0,92,0.03,,---,0.03,VWS V14.01,2013-06-25 10:58:00,
2013-06-25 04:03:00,57.8,55.5,29.67,ESE,117,0.0,2.0,92,0.05,,---,0.05,VWS V14.01,2013-06-25 11:03:00,
2013-06-25 04:08:00,57.6,55.3,29.68,ESE,111,0.0,3.0,92,0.07,,---,0.07,VWS V14.01,2013-06-25 11:08:00,
2013-06-25 04:13:00,57.4,55.4,29.68,ESE,115,0.0,3.0,93,0.08,,---,0.08,VWS V14.01,2013-06-25 11:13:00,
2013-06-25 04:18:00,57.3,55.3,29.68,ESE,115,0.0,3.0,93,0.08,,---,0.08,VWS V14.01,2013-06-25 11:18:00,
2013-06-25 04:23:00,57.1,55.4,29.68,SE,139,0.0,3.0,94,0.09,,---,0.09,VWS V14.01,2013-06-25 11:23:00,
2013-06-25 04:28:00,57.0,55.3,29.68,ESE,123,0.0,3.0,94,0.10,,---,0.10,VWS V14.01,2013-06-25 11:28:00,
2013-06-25 04:33:00,57.0,55.3,29.68,ESE,111,0.0,2.0,94,0.10,,---,0.11,VWS V14.01,2013-06-25 11:33:00,
2013-06-25 04:38:00,57.0,55.6,29.67,NE,52,0.0,4.0,95,0.11,,---,0.12,VWS V14.01,2013-06-25 11:38:00,
2013-06-25 04:43:00,57.0,55.6,29.67,ESE,105,0.0,4.0,95,0.11,,---,0.12,VWS V14.01,2013-06-25 11:43:00,
2013-06-25 04:49:00,56.9,55.5,29.67,East,101,0.0,4.0,95,0.11,,---,0.12,VWS V14.01,2013-06-25 11:49:00,
2013-06-25 04:54:00,56.9,55.5,29.67,East,90,0.0,4.0,95,0.11,,---,0.12,VWS V14.01,2013-06-25 11:54:00,
2013-06-25 04:59:00,56.9,55.5,29.67,SE,128,1.0,4.0,95,0.11,,---,0.12,VWS V14.01,2013-06-25 11:59:00,
2013-06-25 05:04:00,56.8,55.4,29.67,ENE,66,1.0,3.0,95,0.08,,---,0.12,VWS V14.01,2013-06-25 12:04:00,
2013-06-25 05:09:00,56.7,55.3,29.67,NE,53,2.0,3.0,95,0.08,,---,0.12,VWS V14.01,2013-06-25 12:09:00,
2013-06-25 05:14:00,56.6,55.2,29.66,East,82,1.0,3.0,95,0.08,,---,0.12,VWS V14.01,2013-06-25 12:14:00,
2013-06-25 05:19:00,56.6,55.2,29.67,East,87,0.0,3.0,95,0.08,,---,0.12,VWS V14.01,2013-06-25 12:19:00,
2013-06-25 05:24:00,56.7,55.6,29.66,East,97,0.0,4.0,96,0.08,,---,0.12,VWS V14.01,2013-06-25 12:24:00,
2013-06-25 05:29:00,56.7,55.6,29.66,East,80,0.0,4.0,96,0.08,,---,0.12,VWS V14.01,2013-06-25 12:29:00,
2013-06-25 05:34:00,56.7,55.6,29.66,ENE,73,0.0,4.0,96,0.01,,---,0.12,VWS V14.01,2013-06-25 12:34:00,
2013-06-25 05:39:00,56.7,55.6,29.66,ENE,61,0.0,4.0,96,0.01,,---,0.12,VWS V14.01,2013-06-25 12:39:00,
2013-06-25 05:44:00,56.7,55.6,29.66,East,84,2.0,4.0,96,0.01,,---,0.12,VWS V14.01,2013-06-25 12:44:00,
2013-06-25 05:49:00,56.8,55.7,29.66,ENE,65,0.0,4.0,96,0.01,,---,0.12,VWS V14.01,2013-06-25 12:49:00,
2013-06-25 05:54:00,56.8,55.7,29.66,East,84,1.0,4.0,96,0.01,,---,0.12,VWS V14.01,2013-06-25 12:54:00,
2013-06-25 05:59:00,56.8,55.7,29.66,NE,45,2.0,4.0,96,0.01,,---,0.12,VWS V14.01,2013-06-25 12:59:00,
2013-06-25 06:05:00,56.8,55.7,29.66,East,82,0.0,3.0,96,0.00,,---,0.12,VWS V14.01,2013-06-25 13:05:00,
2013-06-25 06:10:00,56.7,55.6,29.66,NNE,24,2.0,3.0,96,0.00,,---,0.12,VWS V14.01,2013-06-25 13:10:00,
2013-06-25 06:15:00,56.7,55.6,29.66,East,79,0.0,3.0,96,0.00,,---,0.12,VWS V14.01,2013-06-25 13:15:00,
2013-06-25 06:20:00,56.7,55.6,29.66,East,88,0.0,3.0,96,0.00,,---,0.12,VWS V14.01,2013-06-25 13:20:00,
2013-06-25 06:25:00,56.7,55.6,29.66,NE,46,0.0,3.0,96,0.00,,---,0.12,VWS V14.01,2013-06-25 13:25:00,
2013-06-25 06:30:00,56.6,55.5,29.66,NE,49,1.0,3.0,96,0.00,,---,0.12,VWS V14.01,2013-06-25 13:30:00,
2013-06-25 06:35:00,56.7,55.6,29.66,ENE,64,1.0,2.0,96,0.00,,---,0.12,VWS V14.01,2013-06-25 13:35:00,
2013-06-25 06:40:00,56.7,55.6,29.66,ENE,65,0.0,2.0,96,0.00,,---,0.12,VWS V14.01,2013-06-25 13:40:00,
2013-06-25 06:45:00,56.8,55.7,29.66,ENE,74,0.0,2.0,96,0.00,,---,0.12,VWS V14.01,2013-06-25 13:45:00,
2013-06-25 06:50:00,56.9,55.8,29.66,ENE,68,0.0,2.0,96,0.00,,---,0.12,VWS V14.01,2013-06-25 13:50:00,
2013-06-25 06:55:00,56.9,55.8,29.66,ENE,68,0.0,2.0,96,0.00,,---,0.12,VWS V14.01,2013-06-25 13:55:00,
2013-06-25 07:00:00,57.0,55.9,29.66,ENE,68,0.0,0.0,96,0.00,,---,0.12,VWS V14.01,2013-06-25 14:00:00,
2013-06-25 07:06:00,57.1,56.0,29.66,ENE,69,0.0,0.0,96,0.00,,---,0.12,VWS V14.01,2013-06-25 14:06:00,
2013-06-25 07:11:00,57.2,56.1,29.67,ENE,69,0.0,0.0,96,0.00,,---,0.12,VWS V14.01,2013-06-25 14:11:00,
2013-06-25 07:16:00,57.3,56.2,29.67,ENE,69,0.0,0.0,96,0.00,,---,0.12,VWS V14.01,2013-06-25 14:16:00,
2013-06-25 07:21:00,57.3,56.2,29.68,ENE,69,0.0,0.0,96,0.01,,---,0.13,VWS V14.01,2013-06-25 14:21:00,
2013-06-25 07:26:00,57.4,56.3,29.69,South,176,0.0,3.0,96,0.04,,---,0.16,VWS V14.01,2013-06-25 14:26:00,
2013-06-25 07:31:00,57.3,56.2,29.69,SSW,198,0.0,1.0,96,0.08,,---,0.20,VWS V14.01,2013-06-25 14:31:00,
2013-06-25 07:36:00,57.2,56.1,29.69,SSE,163,0.0,2.0,96,0.10,,---,0.22,VWS V14.01,2013-06-25 14:36:00,
2013-06-25 07:41:00,57.1,55.7,29.69,SSE,163,0.0,2.0,95,0.12,,---,0.24,VWS V14.01,2013-06-25 14:41:00,
2013-06-25 07:46:00,57.1,56.0,29.68,SSE,163,0.0,2.0,96,0.13,,---,0.25,VWS V14.01,2013-06-25 14:46:00,
2013-06-25 07:51:00,57.3,56.2,29.69,SSE,163,0.0,2.0,96,0.13,,---,0.25,VWS V14.01,2013-06-25 14:51:00,
2013-06-25 07:56:00,57.4,56.3,29.69,SSE,163,0.0,2.0,96,0.13,,---,0.25,VWS V14.01,2013-06-25 14:56:00,
2013-06-25 08:01:00,57.4,56.3,29.69,SSE,163,0.0,0.0,96,0.13,,---,0.25,VWS V14.01,2013-06-25 15:01:00,
2013-06-25 08:06:00,57.5,56.4,29.68,SSE,163,0.0,1.0,96,0.13,,---,0.25,VWS V14.01,2013-06-25 15:06:00,
2013-06-25 08:11:00,57.6,56.5,29.69,SSE,163,0.0,1.0,96,0.13,,---,0.25,VWS V14.01,2013-06-25 15:11:00,
2013-06-25 08:17:00,57.8,56.7,29.69,SSE,163,0.0,1.0,96,0.13,,---,0.25,VWS V14.01,2013-06-25 15:17:00,
2013-06-25 08:22:00,58.2,57.1,29.69,SSE,163,0.0,1.0,96,0.13,,---,0.25,VWS V14.01,2013-06-25 15:22:00,
2013-06-25 08:27:00,58.4,57.3,29.70,SSE,163,0.0,1.0,96,0.13,,---,0.25,VWS V14.01,2013-06-25 15:27:00,
2013-06-25 08:32:00,58.7,57.6,29.70,SSE,163,0.0,1.0,96,0.05,,---,0.25,VWS V14.01,2013-06-25 15:32:00,
2013-06-25 08:37:00,59.0,57.9,29.70,South,172,2.0,3.0,96,0.05,,---,0.25,VWS V14.01,2013-06-25 15:37:00,
2013-06-25 08:42:00,59.0,57.9,29.70,SE,130,0.0,4.0,96,0.05,,---,0.25,VWS V14.01,2013-06-25 15:42:00,
2013-06-25 08:47:00,59.0,57.9,29.70,SE,136,0.0,4.0,96,0.05,,---,0.25,VWS V14.01,2013-06-25 15:47:00,
2013-06-25 08:52:00,59.5,58.4,29.70,South,173,0.0,4.0,96,0.05,,---,0.25,VWS V14.01,2013-06-25 15:52:00,
2013-06-25 08:57:00,59.5,58.1,29.70,SW,225,0.0,4.0,95,0.05,,---,0.25,VWS V14.01,2013-06-25 15:57:00,
2013-06-25 09:02:00,59.7,58.3,29.71,South,186,1.0,2.0,95,0.00,,---,0.25,VWS V14.01,2013-06-25 16:02:00,
2013-06-25 09:07:00,59.7,57.7,29.71,SW,227,0.0,6.0,93,0.00,,---,0.25,VWS V14.01,2013-06-25 16:07:00,
2013-06-25 09:12:00,59.6,57.6,29.71,SW,229,0.0,6.0,93,0.00,,---,0.25,VWS V14.01,2013-06-25 16:12:00,
2013-06-25 09:17:00,59.7,57.7,29.71,West,260,4.0,6.0,93,0.00,,---,0.25,VWS V14.01,2013-06-25 16:17:00,
2013-06-25 09:22:00,59.8,57.8,29.71,SW,228,0.0,7.0,93,0.01,,---,0.26,VWS V14.01,2013-06-25 16:22:00,
2013-06-25 09:27:00,59.9,57.9,29.71,WSW,241,0.0,7.0,93,0.01,,---,0.26,VWS V14.01,2013-06-25 16:27:00,
2013-06-25 09:33:00,59.9,57.6,29.71,SW,217,0.0,0.0,92,0.01,,---,0.26,VWS V14.01,2013-06-25 16:33:00,
2013-06-25 09:38:00,59.8,57.5,29.71,SSE,149,0.0,4.0,92,0.01,,---,0.26,VWS V14.01,2013-06-25 16:38:00,
2013-06-25 09:43:00,60.0,58.0,29.71,South,182,2.0,4.0,93,0.01,,---,0.26,VWS V14.01,2013-06-25 16:43:00,
2013-06-25 09:48:00,60.1,58.1,29.71,SW,217,0.0,4.0,93,0.01,,---,0.26,VWS V14.01,2013-06-25 16:48:00,
2013-06-25 09:53:00,60.7,58.7,29.71,SE,138,0.0,4.0,93,0.01,,---,0.26,VWS V14.01,2013-06-25 16:53:00,
2013-06-25 09:58:00,61.4,59.1,29.71,SW,229,0.0,7.0,92,0.01,,---,0.26,VWS V14.01,2013-06-25 16:58:00,
2013-06-25 10:03:00,61.7,59.0,29.71,WSW,254,0.0,3.0,91,0.01,,---,0.26,VWS V14.01,2013-06-25 17:03:00,
2013-06-25 10:08:00,61.9,59.5,29.71,SSW,198,1.0,7.0,92,0.01,,---,0.26,VWS V14.01,2013-06-25 17:08:00,
2013-06-25 10:13:00,62.4,59.1,29.71,SW,217,2.0,7.0,89,0.01,,---,0.26,VWS V14.01,2013-06-25 17:13:00,
2013-06-25 10:18:00,62.5,59.2,29.71,WSW,242,0.0,11.0,89,0.01,,---,0.26,VWS V14.01,2013-06-25 17:18:00,
2013-06-25 10:23:00,62.6,58.7,29.71,SSW,200,0.0,12.0,87,0.01,,---,0.26,VWS V14.01,2013-06-25 17:23:00,
2013-06-25 10:28:00,63.0,59.7,29.71,WSW,256,2.0,12.0,89,0.01,,---,0.26,VWS V14.01,2013-06-25 17:28:00,
2013-06-25 10:34:00,63.2,59.0,29.71,SW,220,1.0,4.0,86,0.00,,---,0.26,VWS V14.01,2013-06-25 17:34:00,
2013-06-25 10:39:00,63.2,59.0,29.71,SE,134,0.0,6.0,86,0.00,,---,0.26,VWS V14.01,2013-06-25 17:39:00,
2013-06-25 10:44:00,63.1,58.5,29.71,WSW,249,4.0,6.0,85,0.00,,---,0.26,VWS V14.01,2013-06-25 17:44:00,
2013-06-25 10:49:00,63.3,58.7,29.71,SW,228,0.0,7.0,85,0.00,,---,0.26,VWS V14.01,2013-06-25 17:49:00,
2013-06-25 10:54:00,63.8,58.9,29.71,SW,233,1.0,7.0,84,0.00,,---,0.26,VWS V14.01,2013-06-25 17:54:00,
2013-06-25 10:59:00,64.3,59.0,29.71,SW,225,3.0,7.0,83,0.00,,---,0.26,VWS V14.01,2013-06-25 17:59:00,
2013-06-25 11:04:00,64.7,59.1,29.71,SW,225,1.0,6.0,82,0.00,,---,0.26,VWS V14.01,2013-06-25 18:04:00,
2013-06-25 11:09:00,64.7,59.1,29.71,WSW,240,1.0,12.0,82,0.00,,---,0.26,VWS V14.01,2013-06-25 18:09:00,
2013-06-25 11:14:00,65.1,59.5,29.71,SW,217,0.0,12.0,82,0.00,,---,0.26,VWS V14.01,2013-06-25 18:14:00,
2013-06-25 11:19:00,65.1,58.4,29.71,SSE,163,0.0,12.0,79,0.00,,---,0.26,VWS V14.01,2013-06-25 18:19:00,
2013-06-25 11:24:00,65.2,59.2,29.71,WSW,251,0.0,12.0,81,0.00,,---,0.26,VWS V14.01,2013-06-25 18:24:00,
2013-06-25 11:29:00,65.3,58.6,29.71,SW,218,1.0,12.0,79,0.00,,---,0.26,VWS V14.01,2013-06-25 18:29:00,
2013-06-25 11:34:00,65.8,59.5,29.71,SW,221,0.0,7.0,80,0.00,,---,0.26,VWS V14.01,2013-06-25 18:34:00,
2013-06-25 11:39:00,66.5,59.8,29.71,SSE,150,0.0,7.0,79,0.00,,---,0.26,VWS V14.01,2013-06-25 18:39:00,
2013-06-25 11:45:00,67.3,59.1,29.71,WSW,239,0.0,7.0,75,0.00,,---,0.26,VWS V14.01,2013-06-25 18:45:00,
2013-06-25 11:50:00,67.7,58.4,29.71,SSE,168,0.0,7.0,72,0.00,,---,0.26,VWS V14.01,2013-06-25 18:50:00,
2013-06-25 11:55:00,67.0,58.5,29.71,SW,223,0.0,7.0,74,0.00,,---,0.26,VWS V14.01,2013-06-25 18:55:00,
2013-06-25 12:00:00,66.8,57.9,29.71,ESE,114,0.0,7.0,73,0.00,,---,0.26,VWS V14.01,2013-06-25 19:00:00,
2013-06-25 12:05:00,66.6,57.3,29.71,South,171,1.0,6.0,72,0.00,,---,0.26,VWS V14.01,2013-06-25 19:05:00,
2013-06-25 12:10:00,67.0,58.8,29.71,SW,234,1.0,6.0,75,0.00,,---,0.26,VWS V14.01,2013-06-25 19:10:00,
2013-06-25 12:15:00,67.4,57.7,29.71,SW,218,4.0,6.0,71,0.00,,---,0.26,VWS V14.01,2013-06-25 19:15:00,
2013-06-25 12:20:00,67.9,58.9,29.71,SSW,213,2.0,6.0,73,0.00,,---,0.26,VWS V14.01,2013-06-25 19:20:00,
2013-06-25 12:25:00,68.6,58.8,29.72,SW,219,3.0,9.0,71,0.00,,---,0.26,VWS V14.01,2013-06-25 19:25:00,
2013-06-25 12:30:00,69.3,59.5,29.72,SSW,205,0.0,9.0,71,0.00,,---,0.26,VWS V14.01,2013-06-25 19:30:00,
2013-06-25 12:35:00,70.1,59.1,29.71,SW,223,0.0,4.0,68,0.00,,---,0.26,VWS V14.01,2013-06-25 19:35:00,
2013-06-25 12:41:00,70.5,58.6,29.71,SSW,205,0.0,10.0,66,0.00,,---,0.26,VWS V14.01,2013-06-25 19:41:00,
2013-06-25 12:46:00,70.3,58.0,29.72,SW,231,6.0,13.0,65,0.00,,---,0.26,VWS V14.01,2013-06-25 19:46:00,
2013-06-25 12:51:00,70.4,58.1,29.71,SSW,202,3.0,13.0,65,0.00,,---,0.26,VWS V14.01,2013-06-25 19:51:00,
2013-06-25 12:56:00,70.2,58.7,29.71,WSW,237,6.0,13.0,67,0.00,,---,0.26,VWS V14.01,2013-06-25 19:56:00,
2013-06-25 13:01:00,70.7,59.6,29.71,SW,219,5.0,5.0,68,0.00,,---,0.26,VWS V14.01,2013-06-25 20:01:00,
2013-06-25 13:06:00,71.1,59.2,29.71,SSW,200,0.0,12.0,66,0.00,,---,0.26,VWS V14.01,2013-06-25 20:06:00,
2013-06-25 13:11:00,71.9,59.9,29.71,South,186,1.0,12.0,66,0.00,,---,0.26,VWS V14.01,2013-06-25 20:11:00,
2013-06-25 13:16:00,72.5,58.8,29.71,SW,225,2.0,12.0,62,0.00,,---,0.26,VWS V14.01,2013-06-25 20:16:00,
2013-06-25 13:21:00,72.4,58.7,29.71,South,190,0.0,12.0,62,0.00,,---,0.26,VWS V14.01,2013-06-25 20:21:00,
2013-06-25 13:26:00,72.4,58.2,29.71,WSW,241,10.0,17.0,61,0.00,,---,0.26,VWS V14.01,2013-06-25 20:26:00,
2013-06-25 13:31:00,71.3,57.6,29.71,West,280,6.0,14.0,62,0.00,,---,0.26,VWS V14.01,2013-06-25 20:31:00,
2013-06-25 13:36:00,70.6,57.4,29.71,SW,217,2.0,14.0,63,0.00,,---,0.26,VWS V14.01,2013-06-25 20:36:00,
2013-06-25 13:41:00,70.8,58.0,29.71,SSW,201,2.0,14.0,64,0.00,,---,0.26,VWS V14.01,2013-06-25 20:41:00,
2013-06-25 13:47:00,70.8,58.0,29.71,WSW,237,1.0,14.0,64,0.00,,---,0.26,VWS V14.01,2013-06-25 20:47:00,
2013-06-25 13:52:00,71.3,58.9,29.71,West,261,0.0,14.0,65,0.00,,---,0.26,VWS V14.01,2013-06-25 20:52:00,
2013-06-25 13:57:00,72.4,58.2,29.71,SW,214,11.0,14.0,61,0.00,,---,0.26,VWS V14.01,2013-06-25 20:57:00,
2013-06-25 14:02:00,72.7,58.5,29.71,WSW,249,13.0,14.0,61,0.00,,---,0.26,VWS V14.01,2013-06-25 21:02:00,
2013-06-25 14:07:00,72.2,58.9,29.72,West,271,2.0,18.0,63,0.00,,---,0.26,VWS V14.01,2013-06-25 21:07:00,
2013-06-25 14:12:00,72.3,57.7,29.71,SE,144,0.0,18.0,60,0.00,,---,0.26,VWS V14.01,2013-06-25 21:12:00,
2013-06-25 14:17:00,73.2,59.0,29.71,WSW,244,0.0,18.0,61,0.00,,---,0.26,VWS V14.01,2013-06-25 21:17:00,
2013-06-25 14:22:00,73.9,57.2,29.71,SSE,167,6.0,18.0,56,0.00,,---,0.26,VWS V14.01,2013-06-25 21:22:00,
2013-06-25 14:27:00,73.7,57.5,29.71,WSW,252,3.0,19.0,57,0.00,,---,0.26,VWS V14.01,2013-06-25 21:27:00,
2013-06-25 14:32:00,74.2,57.5,29.71,SW,232,0.0,5.0,56,0.00,,---,0.26,VWS V14.01,2013-06-25 21:32:00,
2013-06-25 14:33:00,74.2,57.5,29.71,SSE,165,0.0,5.0,56,0.00,,---,0.26,VWS V14.01,2013-06-25 21:33:00,
2013-06-25 14:38:00,74.5,56.8,29.71,WSW,250,8.0,12.0,54,0.00,,---,0.26,VWS V14.01,2013-06-25 21:38:00,
2013-06-25 14:43:00,74.0,56.8,29.71,South,169,0.0,12.0,55,0.00,,---,0.26,VWS V14.01,2013-06-25 21:43:00,
2013-06-25 14:48:00,74.3,56.6,29.71,SW,215,7.0,14.0,54,0.00,,---,0.26,VWS V14.01,2013-06-25 21:48:00,
2013-06-25 14:53:00,74.2,57.5,29.71,SW,232,0.0,14.0,56,0.00,,---,0.26,VWS V14.01,2013-06-25 21:53:00,
2013-06-25 14:58:00,74.3,56.1,29.71,WSW,237,8.0,15.0,53,0.00,,---,0.26,VWS V14.01,2013-06-25 21:58:00,
2013-06-25 15:03:00,73.8,57.6,29.71,WSW,237,1.0,12.0,57,0.00,,---,0.26,VWS V14.01,2013-06-25 22:03:00,
2013-06-25 15:08:00,74.2,56.5,29.71,SW,221,9.0,13.0,54,0.00,,---,0.26,VWS V14.01,2013-06-25 22:08:00,
2013-06-25 15:13:00,73.3,56.2,29.71,SW,217,0.0,13.0,55,0.00,,---,0.26,VWS V14.01,2013-06-25 22:13:00,
2013-06-25 15:19:00,73.1,56.0,29.71,SSW,213,11.0,15.0,55,0.00,,---,0.26,VWS V14.01,2013-06-25 22:19:00,
2013-06-25 15:24:00,73.2,56.1,29.71,SW,221,3.0,15.0,55,0.00,,---,0.26,VWS V14.01,2013-06-25 22:24:00,
2013-06-25 15:29:00,73.3,56.2,29.71,WSW,252,6.0,15.0,55,0.00,,---,0.26,VWS V14.01,2013-06-25 22:29:00,
2013-06-25 15:34:00,73.8,56.6,29.71,SW,226,0.0,12.0,55,0.00,,---,0.26,VWS V14.01,2013-06-25 22:34:00,
2013-06-25 15:39:00,73.9,57.2,29.71,SSW,209,3.0,12.0,56,0.00,,---,0.26,VWS V14.01,2013-06-25 22:39:00,
2013-06-25 15:44:00,73.6,57.0,29.71,SW,234,3.0,12.0,56,0.00,,---,0.26,VWS V14.01,2013-06-25 22:44:00,
2013-06-25 15:49:00,73.7,56.0,29.70,West,277,1.0,12.0,54,0.00,,---,0.26,VWS V14.01,2013-06-25 22:49:00,
2013-06-25 15:54:00,74.1,56.4,29.70,WSW,248,1.0,12.0,54,0.00,,---,0.26,VWS V14.01,2013-06-25 22:54:00,
2013-06-25 15:59:00,73.9,55.7,29.70,WSW,242,4.0,12.0,53,0.00,,---,0.26,VWS V14.01,2013-06-25 22:59:00,
2013-06-25 16:04:00,73.9,55.7,29.70,WSW,244,0.0,9.0,53,0.00,,---,0.26,VWS V14.01,2013-06-25 23:04:00,
2013-06-25 16:09:00,74.2,56.0,29.70,SW,224,1.0,9.0,53,0.00,,---,0.26,VWS V14.01,2013-06-25 23:09:00,
2013-06-25 16:14:00,74.2,56.0,29.70,WSW,252,5.0,9.0,53,0.00,,---,0.26,VWS V14.01,2013-06-25 23:14:00,
2013-06-25 16:19:00,73.7,56.0,29.70,WSW,252,0.0,9.0,54,0.00,,---,0.26,VWS V14.01,2013-06-25 23:19:00,
2013-06-25 16:25:00,74.1,55.9,29.70,SSE,164,0.0,9.0,53,0.00,,---,0.26,VWS V14.01,2013-06-25 23:25:00,
2013-06-25 16:30:00,74.9,56.6,29.70,SW,214,4.0,9.0,53,0.00,,---,0.26,VWS V14.01,2013-06-25 23:30:00,
2013-06-25 16:35:00,75.1,56.8,29.70,WSW,240,0.0,5.0,53,0.00,,---,0.26,VWS V14.01,2013-06-25 23:35:00,
2013-06-25 16:40:00,75.3,57.0,29.70,SW,232,1.0,5.0,53,0.00,,---,0.26,VWS V14.01,2013-06-25 23:40:00,
2013-06-25 16:45:00,75.4,56.6,29.70,East,98,0.0,6.0,52,0.00,,---,0.26,VWS V14.01,2013-06-25 23:45:00,
2013-06-25 16:50:00,75.4,56.6,29.70,SW,229,4.0,6.0,52,0.00,,---,0.26,VWS V14.01,2013-06-25 23:50:00,
2013-06-25 16:55:00,75.4,56.6,29.70,West,273,1.0,6.0,52,0.00,,---,0.26,VWS V14.01,2013-06-25 23:55:00,
2013-06-25 17:00:00,75.0,56.2,29.70,SW,234,3.0,8.0,52,0.00,,---,0.26,VWS V14.01,2013-06-26 00:00:00,
2013-06-25 17:05:00,74.1,55.9,29.70,West,264,3.0,6.0,53,0.00,,---,0.26,VWS V14.01,2013-06-26 00:05:00,
2013-06-25 17:10:00,73.5,56.9,29.70,SW,227,2.0,6.0,56,0.00,,---,0.26,VWS V14.01,2013-06-26 00:10:00,
2013-06-25 17:15:00,72.8,55.7,29.71,WSW,238,5.0,7.0,55,0.00,,---,0.26,VWS V14.01,2013-06-26 00:15:00,
2013-06-25 17:20:00,72.3,56.2,29.71,WSW,240,0.0,7.0,57,0.00,,---,0.26,VWS V14.01,2013-06-26 00:20:00,
2013-06-25 17:25:00,72.1,56.0,29.71,SSE,149,2.0,7.0,57,0.00,,---,0.26,VWS V14.01,2013-06-26 00:25:00,
2013-06-25 17:30:00,71.7,56.2,29.72,SSE,155,0.0,9.0,58,0.00,,---,0.26,VWS V14.01,2013-06-26 00:30:00,
2013-06-25 17:35:00,69.2,57.8,29.73,West,267,6.0,25.0,67,0.00,,---,0.26,VWS V14.01,2013-06-26 00:35:00,
2013-06-25 17:40:00,66.3,59.2,29.75,SSW,192,0.0,25.0,78,0.01,,---,0.27,VWS V14.01,2013-06-26 00:40:00,
2013-06-25 17:45:00,63.8,58.5,29.75,SE,124,4.0,25.0,83,0.03,,---,0.29,VWS V14.01,2013-06-26 00:45:00,
2013-06-25 17:50:00,62.1,57.9,29.75,WSW,240,3.0,25.0,86,0.05,,---,0.31,VWS V14.01,2013-06-26 00:50:00,
2013-06-25 17:56:00,61.4,58.1,29.75,SW,220,1.0,25.0,89,0.05,,---,0.31,VWS V14.01,2013-06-26 00:56:00,
2013-06-25 18:01:00,61.1,58.2,29.75,SW,222,0.0,1.0,90,0.06,,---,0.32,VWS V14.01,2013-06-26 01:01:00,
2013-06-25 18:06:00,61.2,58.9,29.76,SW,232,0.0,6.0,92,0.06,,---,0.32,VWS V14.01,2013-06-26 01:06:00,
2013-06-25 18:11:00,61.2,58.9,29.75,SW,231,0.0,7.0,92,0.06,,---,0.32,VWS V14.01,2013-06-26 01:11:00,
2013-06-25 18:16:00,61.5,59.2,29.75,SW,232,2.0,7.0,92,0.07,,---,0.33,VWS V14.01,2013-06-26 01:16:00,
2013-06-25 18:21:00,61.7,59.7,29.75,SW,232,0.0,7.0,93,0.07,,---,0.33,VWS V14.01,2013-06-26 01:21:00,
2013-06-25 18:26:00,61.5,58.8,29.75,SW,226,0.0,7.0,91,0.07,,---,0.33,VWS V14.01,2013-06-26 01:26:00,
2013-06-25 18:31:00,61.4,58.8,29.75,SW,226,0.0,0.0,91,0.07,,---,0.33,VWS V14.01,2013-06-26 01:31:00,
2013-06-25 18:36:00,61.6,59.0,29.75,SW,226,0.0,1.0,91,0.07,,---,0.33,VWS V14.01,2013-06-26 01:36:00,
2013-06-25 18:41:00,61.7,59.0,29.75,SW,226,0.0,3.0,91,0.07,,---,0.33,VWS V14.01,2013-06-26 01:41:00,
2013-06-25 18:42:00,61.7,59.0,29.75,SW,226,2.0,3.0,91,0.07,,---,0.33,VWS V14.01,2013-06-26 01:42:00,
2013-06-25 18:47:00,61.6,58.6,29.75,SW,231,3.0,4.0,90,0.07,,---,0.33,VWS V14.01,2013-06-26 01:47:00,
2013-06-25 18:52:00,61.6,59.0,29.76,SW,232,1.0,4.0,91,0.07,,---,0.33,VWS V14.01,2013-06-26 01:52:00,
2013-06-25 18:57:00,61.6,59.0,29.76,SW,232,0.0,4.0,91,0.07,,---,0.33,VWS V14.01,2013-06-26 01:57:00,
2013-06-25 19:02:00,61.7,59.0,29.75,SW,232,0.0,1.0,91,0.01,,---,0.33,VWS V14.01,2013-06-26 02:02:00,
2013-06-25 19:08:00,62.0,59.3,29.76,SW,232,0.0,1.0,91,0.01,,---,0.33,VWS V14.01,2013-06-26 02:08:00,
2013-06-25 19:13:00,62.1,58.5,29.76,SW,232,0.0,1.0,88,0.01,,---,0.33,VWS V14.01,2013-06-26 02:13:00,
2013-06-25 19:18:00,62.2,58.9,29.76,SW,232,0.0,1.0,89,0.01,,---,0.33,VWS V14.01,2013-06-26 02:18:00,
2013-06-25 19:23:00,62.1,58.5,29.77,SW,232,0.0,1.0,88,0.01,,---,0.33,VWS V14.01,2013-06-26 02:23:00,
2013-06-25 19:28:00,62.0,58.7,29.76,SW,232,0.0,1.0,89,0.02,,---,0.34,VWS V14.01,2013-06-26 02:28:00,
2013-06-25 19:33:00,61.7,58.1,29.76,SSW,211,0.0,1.0,88,0.02,,---,0.35,VWS V14.01,2013-06-26 02:33:00,
2013-06-25 19:38:00,61.6,58.3,29.76,SSW,211,0.0,1.0,89,0.02,,---,0.35,VWS V14.01,2013-06-26 02:38:00,
2013-06-25 19:43:00,61.5,58.5,29.77,SSW,211,0.0,1.0,90,0.02,,---,0.35,VWS V14.01,2013-06-26 02:43:00,
2013-06-25 19:48:00,61.3,58.7,29.77,SSW,209,0.0,2.0,91,0.05,,---,0.38,VWS V14.01,2013-06-26 02:48:00,
2013-06-25 19:53:00,60.9,58.3,29.78,SSE,153,0.0,2.0,91,0.09,,---,0.42,VWS V14.01,2013-06-26 02:53:00,
2013-06-25 19:58:00,60.5,57.9,29.77,SSE,164,2.0,4.0,91,0.12,,---,0.45,VWS V14.01,2013-06-26 02:58:00,
2013-06-25 20:03:00,60.2,57.9,29.78,SSE,164,0.0,2.0,92,0.14,,---,0.47,VWS V14.01,2013-06-26 03:03:00,
2013-06-25 20:08:00,60.1,58.1,29.78,SW,225,0.0,2.0,93,0.17,,---,0.50,VWS V14.01,2013-06-26 03:08:00,
2013-06-25 20:13:00,60.0,58.3,29.79,WSW,237,2.0,7.0,94,0.19,,---,0.52,VWS V14.01,2013-06-26 03:13:00,
2013-06-25 20:19:00,59.9,58.2,29.79,WSW,253,1.0,10.0,94,0.20,,---,0.53,VWS V14.01,2013-06-26 03:19:00,
2013-06-25 20:24:00,59.9,58.2,29.79,SW,225,0.0,10.0,94,0.20,,---,0.53,VWS V14.01,2013-06-26 03:24:00,
2013-06-25 20:29:00,59.9,58.5,29.79,SW,230,0.0,10.0,95,0.21,,---,0.54,VWS V14.01,2013-06-26 03:29:00,
2013-06-25 20:34:00,59.8,58.4,29.79,SW,230,0.0,2.0,95,0.20,,---,0.54,VWS V14.01,2013-06-26 03:34:00,
2013-06-25 20:39:00,59.8,58.4,29.79,SW,230,0.0,2.0,95,0.20,,---,0.54,VWS V14.01,2013-06-26 03:39:00,
2013-06-25 20:44:00,59.6,58.2,29.80,SSE,150,2.0,5.0,95,0.20,,---,0.54,VWS V14.01,2013-06-26 03:44:00,
2013-06-25 20:49:00,59.5,58.1,29.80,ESE,113,0.0,5.0,95,0.20,,---,0.54,VWS V14.01,2013-06-26 03:49:00,
2013-06-25 20:54:00,59.5,58.1,29.80,ESE,122,1.0,5.0,95,0.20,,---,0.54,VWS V14.01,2013-06-26 03:54:00,
2013-06-25 20:59:00,59.4,58.0,29.81,SSE,149,0.0,5.0,95,0.20,,---,0.54,VWS V14.01,2013-06-26 03:59:00,
2013-06-25 21:01:00,59.4,58.0,29.80,SSE,149,0.0,0.0,95,0.08,,---,0.54,VWS V14.01,2013-06-26 04:01:00,
2013-06-25 21:02:00,59.4,58.0,29.80,SSE,149,0.0,0.0,95,0.08,,---,0.54,VWS V14.01,2013-06-26 04:02:00,
2013-06-25 21:07:00,59.3,57.9,29.81,ESE,107,1.0,3.0,95,0.08,,---,0.54,VWS V14.01,2013-06-26 04:07:00,
2013-06-25 21:12:00,59.0,57.3,29.81,SSE,167,2.0,6.0,94,0.08,,---,0.54,VWS V14.01,2013-06-26 04:12:00,
2013-06-25 21:17:00,59.0,57.3,29.81,SE,132,2.0,6.0,94,0.08,,---,0.54,VWS V14.01,2013-06-26 04:17:00,
2013-06-25 21:22:00,59.0,57.3,29.81,SSE,162,0.0,6.0,94,0.08,,---,0.54,VWS V14.01,2013-06-26 04:22:00,
2013-06-25 21:27:00,59.0,57.3,29.81,SSE,161,4.0,6.0,94,0.08,,---,0.54,VWS V14.01,2013-06-26 04:27:00,
2013-06-25 21:32:00,59.0,57.3,29.82,WSW,238,2.0,4.0,94,0.00,,---,0.54,VWS V14.01,2013-06-26 04:32:00,
2013-06-25 21:37:00,59.0,57.3,29.82,SSW,202,3.0,4.0,94,0.00,,---,0.54,VWS V14.01,2013-06-26 04:37:00,
2013-06-25 21:42:00,59.0,57.3,29.82,South,175,0.0,4.0,94,0.00,,---,0.54,VWS V14.01,2013-06-26 04:42:00,
2013-06-25 21:48:00,59.0,57.3,29.82,South,174,1.0,4.0,94,0.00,,---,0.54,VWS V14.01,2013-06-26 04:48:00,
2013-06-25 21:53:00,59.0,57.0,29.83,SSE,162,0.0,5.0,93,0.00,,---,0.54,VWS V14.01,2013-06-26 04:53:00,
2013-06-25 21:58:00,59.0,57.3,29.83,SSE,150,4.0,5.0,94,0.00,,---,0.54,VWS V14.01,2013-06-26 04:58:00,
2013-06-25 22:03:00,59.0,57.0,29.83,SSE,166,0.0,3.0,93,0.00,,---,0.54,VWS V14.01,2013-06-26 05:03:00,
2013-06-25 22:08:00,58.8,56.8,29.83,SSE,147,1.0,4.0,93,0.00,,---,0.54,VWS V14.01,2013-06-26 05:08:00,
2013-06-25 22:13:00,58.7,56.7,29.83,ESE,110,0.0,4.0,93,0.00,,---,0.54,VWS V14.01,2013-06-26 05:13:00,
2013-06-25 22:18:00,58.6,56.6,29.83,SSE,165,0.0,5.0,93,0.00,,---,0.54,VWS V14.01,2013-06-26 05:18:00,
2013-06-25 22:23:00,58.6,56.6,29.83,SSE,149,0.0,5.0,93,0.00,,---,0.54,VWS V14.01,2013-06-26 05:23:00,
2013-06-25 22:28:00,58.5,56.5,29.83,West,281,0.0,5.0,93,0.00,,---,0.54,VWS V14.01,2013-06-26 05:28:00,
2013-06-25 22:33:00,58.5,56.2,29.83,South,177,1.0,4.0,92,0.00,,---,0.54,VWS V14.01,2013-06-26 05:33:00,
2013-06-25 22:38:00,58.5,56.2,29.83,SE,146,0.0,5.0,92,0.00,,---,0.54,VWS V14.01,2013-06-26 05:38:00,
2013-06-25 22:43:00,58.4,56.1,29.83,SE,146,0.0,5.0,92,0.00,,---,0.54,VWS V14.01,2013-06-26 05:43:00,
2013-06-25 22:48:00,58.2,55.9,29.83,SE,136,1.0,5.0,92,0.00,,---,0.54,VWS V14.01,2013-06-26 05:48:00,
2013-06-25 22:53:00,58.2,55.9,29.84,SSE,154,0.0,5.0,92,0.00,,---,0.54,VWS V14.01,2013-06-26 05:53:00,
2013-06-25 22:58:00,58.2,55.9,29.84,SE,140,0.0,5.0,92,0.00,,---,0.54,VWS V14.01,2013-06-26 05:58:00,
2013-06-25 23:04:00,58.1,55.8,29.84,SE,142,0.0,6.0,92,0.00,,---,0.54,VWS V14.01,2013-06-26 06:04:00,
2013-06-25 23:09:00,58.0,55.7,29.84,SSE,161,0.0,6.0,92,0.00,,---,0.54,VWS V14.01,2013-06-26 06:09:00,
2013-06-25 23:14:00,58.0,55.7,29.84,SE,146,1.0,6.0,92,0.00,,---,0.54,VWS V14.01,2013-06-26 06:14:00,
2013-06-25 23:19:00,58.0,55.7,29.84,SSE,153,1.0,6.0,92,0.00,,---,0.54,VWS V14.01,2013-06-26 06:19:00,
2013-06-25 23:24:00,58.0,56.0,29.84,SSE,153,0.0,6.0,93,0.00,,---,0.54,VWS V14.01,2013-06-26 06:24:00,
2013-06-25 23:29:00,58.0,56.0,29.84,SSE,153,0.0,6.0,93,0.00,,---,0.54,VWS V14.01,2013-06-26 06:29:00,
2013-06-25 23:34:00,57.9,56.2,29.84,SE,132,0.0,3.0,94,0.00,,---,0.54,VWS V14.01,2013-06-26 06:34:00,
2013-06-25 23:39:00,57.9,56.2,29.84,ESE,113,1.0,5.0,94,0.00,,---,0.54,VWS V14.01,2013-06-26 06:39:00,
2013-06-25 23:44:00,57.8,56.1,29.84,ESE,114,0.0,5.0,94,0.00,,---,0.54,VWS V14.01,2013-06-26 06:44:00,
2013-06-25 23:49:00,57.8,56.1,29.84,ESE,115,0.0,5.0,94,0.00,,---,0.54,VWS V14.01,2013-06-26 06:49:00,
2013-06-25 23:54:00,57.8,56.1,29.84,ESE,114,0.0,5.0,94,0.00,,---,0.54,VWS V14.01,2013-06-26 06:54:00,
2013-06-25 23:59:00,57.7,56.0,29.84,ESE,119,3.0,5.0,94,0.00,,---,0.54,VWS V14.01,2013-06-26 06:59:00,